Printer-friendly version

IAU Minor Planet Center

Minor Planet Center

MPEC 2005-F37 : COMET P/2005 E1 (TUBBIOLO)

The following Minor Planet Electronic Circular may be linked-to from your own Web pages, but must not otherwise be redistributed electronically.


Read MPEC 2005-F36 Read MPEC 2005-F38


M.P.E.C. 2005-F37                                Issued 2005 Mar. 22, 16:15 UT

     The Minor Planet Electronic Circulars contain information on unusual
         minor planets and routine data on comets.  They are published
   on behalf of Commission 20 of the International Astronomical Union by the
          Minor Planet Center, Smithsonian Astrophysical Observatory,
                          Cambridge, MA 02138, U.S.A.

                  Supported in part by the Brinson Foundation
             Prepared using the Tamkin Foundation Computer Network

                              MPC@CFA.HARVARD.EDU
          URL http://cfa-www.harvard.edu/iau/mpc.html  ISSN 1523-6714

                          COMET P/2005 E1 (TUBBIOLO)

Observations:
    PK05E010  C2005 03 09.02062 11 46 10.82 +02 47 29.3          19.0 N EF037213
    PK05E010  C2005 03 09.03880 11 46 10.26 +02 47 32.1          19.0 N EF037213
    PK05E010   2005 03 14.61042 11 43 26.44 +03 00 15.1          20.0 T EF037372
    PK05E010   2005 03 14.68958 11 43 24.00 +03 00 25.2          19.9 T EF037372
    PK05E010  C2005 03 18.97202 11 41 17.19 +03 10 10.6                 EF037213
    PK05E010  C2005 03 18.97704 11 41 17.03 +03 10 11.2                 EF037213
    PK05E010  C2005 03 18.97955 11 41 16.95 +03 10 11.4                 EF037213
    PK05E010  C2005 03 18.98457 11 41 16.81 +03 10 11.8                 EF037213
    PK05E010  C2005 03 18.98479 11 41 16.91 +03 10 10.8          19.3 N EF037J76
    PK05E010  C2005 03 18.98829 11 41 16.78 +03 10 12.0          19.1 N EF037J76
    PK05E010  C2005 03 18.99181 11 41 16.70 +03 10 12.8          19.2 N EF037J76

Observer details:
213 Observatorio Montcabre.  Observer R. Naves.  Measurer M. Campas.  0.30-m
    f/5.9 Schmidt-Cassegrain + CCD.
372 Geisei.  Observer T. Seki.  0.60-m f/3.5 reflector.
J76 La Murta.  Observers S. Pastor, J. A. Reyes.  0.40-m f/6.3
    Schmidt-Cassegrain + CCD.

Orbital elements:
    P/2005 E1 (Tubbiolo)
T 2005 Feb. 5.109 TT                                    MPC
q   4.37546              (2000.0)            P               Q
n   0.049159       Peri.  165.241       -0.984636       -0.174475
a   7.38020        Node     4.729       +0.150146       -0.866803
e   0.40714        Incl.    4.971       +0.089156       -0.467131
P  20.0
From 26 observations 2005 Mar. 3-18.

Ephemeris:
    P/2005 E1 (Tubbiolo)
Date    TT    R. A. (2000) Decl.     Delta      r     Elong.  Phase   m1    m2
2005 03 21    11 40.29   +03 14.7    3.390    4.382   173.7     1.4  19.1
2005 03 31    11 35.60   +03 35.3    3.421    4.385   162.7     3.9  19.1
2005 04 10    11 31.53   +03 51.6    3.480    4.388   151.8     6.2  19.1
2005 04 20    11 28.43   +04 01.6    3.564    4.393   141.2     8.2  19.2
2005 04 30    11 26.53   +04 04.2    3.670    4.397   131.0    10.0  19.3

Brian G. Marsden             (C) Copyright 2005 MPC           M.P.E.C. 2005-F37

Read MPEC 2005-F36 Read MPEC 2005-F38


Our Web policy. Index to the CBAT/MPC/ICQ pages.


Valid HTML 4.01!